User: anonymous   Login
Location: Sungai Bunut
(2.6333°N, 113.7333°E)
Time: 22:52:50
(UTC+00:00)
Language:

METEOR 2-5 DEB - Orbit

View from above orbital plane
View from above orbital plane
View from above satellite
View from above satellite

Ground track
Ground track

The orbit data is extracted from the following two-line orbital elements,

1 40214U 79095CM  22222.04935792  .00001066  00000-0  52236-3 0  9994
2 40214  81.2086 125.2249 0010099 164.3871 195.7617 14.17195455406662
Epoch (UTC): 10 August 2022 01:11:04
Eccentricity: 0.0010099
inclination: 81.2086°
perigee height: 827 km
apogee height: 842 km
right ascension of ascending node: 125.2249°
argument of perigee: 164.3871°
revolutions per day: 14.17195455
mean anomaly at epoch: 195.7617°
orbit number at epoch: 40666

The dashed part of the orbit path shows where the satellite is in the earth's shadow,  

DLR